Location: Chircca
(13.7944°S, 72.0608°W)
Time: 01:25:25
(UTC+00:00)

Daily predictions for brighter satellites

Satellite Brightness Start Highest point End
(mag) Time Altitude Azimuth Time Altitude Azimuth Time Altitude Azimuth
Timation 1 Rocket 4.2 00:00:42 10° NNW 00:06:39 89° ENE 00:10:06 27° SSE
Cosmos 1356 Rocket 3.4 00:06:13 10° N 00:09:45 62° NE 00:09:45 62° NE
Cosmos 2298 Rocket 4.1 00:09:07 10° N 00:14:12 54° ENE 00:14:12 54° ENE
ARIANE 5 DEB (SYLDA) 4.4 00:11:21 10° NW 00:15:35 29° N 00:19:14 19° NE
Longmarch 3A Rocket 2.9 00:16:00 10° WSW 00:18:46 32° WSW 00:18:46 32° WSW
Cosmos 1300 3.3 00:17:33 10° N 00:20:32 52° NNW 00:20:32 52° NNW
Cosmos 2285 Rocket 3.9 00:17:25 10° NNW 00:23:43 88° W 00:26:17 39° S
USA 215 3.1 00:24:13 39° ENE 00:26:47 70° SE 00:33:17 10° SSW
CZ-4 R/B 3.6 00:36:17 16° SW 00:38:09 22° WSW 00:41:16 10° NW
YAOGAN 1 4.5 00:44:17 23° SW 00:45:22 26° WSW 00:48:58 10° NW
Delta 202 4.3 00:52:20 10° WSW 00:56:39 58° WSW 00:56:39 58° WSW
Milstar 3 Cent rocket 4.0 00:55:48 10° NNW 00:57:36 20° N 00:57:36 20° N
Cosmos 2237 Rocket 4.1 01:03:31 10° SW 01:08:11 27° WNW 01:12:52 10° NNW
Cosmos 2263 Rocket 4.1 01:18:50 10° NW 01:22:32 24° W 01:22:32 24° W
H-2A R/B 4.5 01:34:18 19° WNW 01:34:18 19° WNW 01:36:06 10° NW
ARIANE 5 R/B 4.4 08:30:14 29° NE 08:30:14 29° NE 08:38:10 10° ENE
Atlas Centaur 2 4.5 08:40:21 24° SSE 08:40:21 24° SSE 08:44:28 10° SE
Nadezhda 4 Rocket 4.5 08:39:06 10° N 08:45:14 57° E 08:45:18 57° E
Cosmos 1980 Rocket 3.8 08:48:18 10° N 08:57:16 23° SSE 08:59:22 10° SSE
Centaur AC-146 3.1 09:02:56 51° ENE 09:02:56 51° ENE 09:10:19 10° ENE
Centaur Rocket 4.3 09:04:56 64° SSW 09:05:30 67° S 09:22:13 10° E
Cosmos 2219 4.1 09:12:35 25° SSE 09:15:31 45° ESE 09:20:56 10° NE
Cosmos 1733 4.4 09:18:19 40° ENE 09:18:19 40° ENE 09:21:11 10° NNE
Cosmos 2279 Rocket 3.8 09:19:18 67° W 09:19:26 67° W 09:25:35 10° N
Delta 168 4.2 09:20:51 47° S 09:20:51 47° S 09:25:10 10° SE
Lacrosse 4 Rocket 3.2 09:30:33 23° NNW 09:30:33 23° NNW 09:32:30 10° N
Cosmos 1025 Rocket 3.6 09:28:23 10° N 09:32:34 56° E 09:36:46 10° SSE
SAR-Lupe-1 4.2 09:36:29 57° SE 09:37:03 71° ENE 09:40:36 10° N
FENGYUN 3A 4.0 09:35:50 10° N 09:40:52 42° WNW 09:40:52 42° WNW
Delta 142 4.4 09:40:03 44° WSW 09:42:15 86° NNW 09:50:02 10° ENE
ALOS 3.3 09:38:16 10° NNW 09:41:15 30° NW 09:41:15 30° NW
Cosmos 1570 Rocket 4.0 09:37:38 10° NNW 09:42:56 87° ENE 09:48:19 10° SSE
Meteor 1-21 4.5 09:39:08 10° NNW 09:44:39 46° W 09:50:12 10° S
CZ-4B R/B 1.7 09:45:25 53° NNW 09:45:25 53° NNW 09:48:07 10° NNW
PSLV R/B 3.0 09:45:59 57° ENE 09:45:59 57° ENE 09:49:00 10° ENE
Cosmos 2195 Rocket 4.4 09:39:48 10° N 09:46:05 79° W 09:52:27 10° S
Cosmos 1536 Rocket 3.7 09:44:10 10° N 09:48:29 74° E 09:52:50 10° S
CZ-4B R/B 3.8 09:44:33 10° NNW 09:48:07 36° WNW 09:48:07 36° WNW
Cosmos 1707 2.6 09:45:08 10° NNW 09:49:00 65° W 09:50:20 38° SSW
SJ 16-02 3.4 09:49:45 10° SSE 09:53:30 26° ESE 09:57:12 10° NE
SJ-12 4.5 09:49:46 10° NNW 09:53:12 37° WNW 09:53:12 37° WNW
Delta 198 4.3 09:50:03 17° NW 09:53:51 52° NNE 09:58:09 10° E
Cosmos 2297 Rocket 2.1 09:49:35 17° SSW 09:54:00 88° WNW 09:59:38 10° NNE
Cosmos 540 Rocket 3.3 09:49:41 10° NNW 09:54:50 80° WSW 10:00:02 10° S
Cosmos 841 Rocket 3.4 09:50:33 10° NNW 09:55:44 73° WSW 10:01:00 10° S
Cosmos 2322 Rocket 3.4 09:52:26 10° N 09:57:48 45° ENE 10:03:13 10° SSE
Cosmos 1544 Rocket 4.3 09:54:06 10° S 09:58:21 52° E 10:02:34 10° NNE
Cosmos 2026 Rocket 3.9 09:59:40 10° NNW 10:05:37 60° W 10:11:40 10° S
CZ-4B DEB 4.1 10:00:14 10° N 10:05:41 78° WNW 10:11:14 10° SSW
Cosmos 1818 3.8 10:01:50 10° NNW 10:07:12 74° ENE 10:12:36 10° SSE
Maqsat-H 3.1 10:00:57 13° W 10:10:05 50° N 10:13:54 10° ENE
Palapa B4 Rocket 3.6 10:08:16 19° WNW 10:11:39 84° NNE 10:18:36 10° ESE
NOAA 6 4.0 10:07:52 10° N 10:12:58 83° WNW 10:18:07 10° SSW
Centaur AC-102 4.4 10:01:20 10° WNW 10:13:00 54° N 10:17:42 10° E
Okean O Rocket 2.1 10:09:50 10° NNE 10:14:11 62° ESE 10:18:36 10° S
ADEOS Rocket 3.1 10:09:57 10° SSE 10:15:33 74° ENE 10:21:33 10° N
GPS 2-15 Rocket1 3.1 10:13:38 22° WSW 10:16:40 79° SSE 10:21:25 10° ENE
H-2A R/B 3.5 10:15:26 10° NNW 10:18:35 23° W 10:19:45 20° WSW
Cosmos 1437 3.1 10:16:27 10° N 10:19:23 60° E 10:22:21 10° SSE
Hubble Space Telescope 2.3 10:18:05 18° SW 10:19:27 21° SSW 10:22:39 10° SSE
YAOGAN 6 4.2 10:17:36 10° NE 10:20:56 35° ESE 10:24:15 10° S
SMAP 3.8 10:18:23 10° NNE 10:22:56 54° ESE 10:27:29 10° S
In-Cosmos 22 4.3 10:20:19 10° NNW 10:25:46 52° W 10:31:09 10° S
Atlas Centaur 2 4.3 10:22:57 11° SW 10:28:50 23° S 10:34:40 10° SE
Cosmos 2360 Rocket 3.6 10:24:32 10° N 10:29:49 42° ENE 10:35:07 10° SE
H-2A R/B 3.1 10:28:30 10° N 10:32:14 47° W 10:36:02 10° SSW
ATLAS 5 CENTAUR R/B 2.8 10:25:24 10° NW 10:32:25 59° WSW 10:39:28 10° SSE
Cosmos 1340 Rocket 2.8 10:28:30 10° S 10:32:34 73° W 10:36:36 10° N
GPS 2-12 Rocket1 4.1 10:29:32 10° NW 10:33:52 43° NNE 10:38:09 10° E
Cosmos 1655 Rocket 4.1 10:29:06 10° N 10:35:21 89° ENE 10:41:39 10° S
Centaur AC-64 3.2 10:22:35 10° WNW 10:35:28 88° NNE 10:38:35 10° ESE
Cosmos 2227 Rocket 2.8 10:33:25 10° SW 10:38:32 36° WNW 10:43:39 10° NNW
Cosmos 1674 2.8 10:36:18 10° NNW 10:39:53 50° W 10:43:32 10° S
SKYMED 2 3.6 10:37:24 10° SSE 10:41:47 90° N 10:46:06 10° NNW
Cosmos 2082 3.7 10:36:30 10° SSW 10:42:13 70° WNW 10:47:51 10° N
CORIOLIS 4.5 10:37:17 10° NNE 10:42:42 74° ESE 10:48:08 10° S
Delta 2 Rocket 4.3 10:35:33 11° WSW 10:43:23 85° NNW 10:50:00 10° ENE
Envisat 3.0 10:38:58 10° N 10:44:01 76° WNW 10:49:08 10° SSW
Cosmos 2266 Rocket 4.2 10:42:30 10° N 10:48:53 84° E 10:55:14 10° S
NOSS 3-1 (C) 3.8 10:44:15 10° SSW 10:49:36 55° ESE 10:54:35 10° NE
CCE 1 Rocket 4.5 10:44:16 10° W 10:50:13 39° SSW 10:54:11 10° SE
CZ-3 R/B 2.8 10:37:26 10° NW 10:51:45 51° NNE 10:56:21 10° E
SEDSat Delta rocket 3.7 10:46:29 10° WNW 10:52:50 74° SSW 10:58:26 10° SE
